#�ϑ�����,���ϕ���,���ϕ���,�ő啗��,�ő啗����������,�ő�u�ԕ���,�ő�u�ԕ�����������
#(�N����),(m/s)   ,(16����),(m/s)   ,(16����)        ,(m/s)       ,(16����)            
2012/5/11 0:01,6.5,16,6.5,16,10.9,16
2012/5/11 0:02,6.8,16,6.8,16,12.5,16
2012/5/11 0:03,6.7,16,6.8,16,9.3,1
2012/5/11 0:04,6.8,16,6.8,16,14.7,16
2012/5/11 0:05,6.8,16,6.8,16,11.1,1
2012/5/11 0:06,6.5,16,6.9,16,11.5,16
2012/5/11 0:07,6.2,16,6.4,16,11.3,16
2012/5/11 0:08,5.9,16,6.1,16,8.5,1
2012/5/11 0:09,5.6,16,5.8,16,3.5,2
2012/5/11 0:10,5.1,16,5.5,16,3.6,15
2012/5/11 0:11,4.8,16,5.1,16,4.1,16
2012/5/11 0:12,4.3,16,4.8,16,3.6,16
2012/5/11 0:13,4.1,16,4.2,16,7.4,13
2012/5/11 0:14,3.6,16,4.1,16,5.8,15
2012/5/11 0:15,3,16,3.6,16,3.1,16
2012/5/11 0:16,2.9,16,3,16,5.5,16
2012/5/11 0:17,2.5,16,2.8,16,6.9,1
2012/5/11 0:18,2.5,16,2.6,16,8.4,16
2012/5/11 0:19,2.7,16,2.7,16,7.2,16
2012/5/11 0:20,2.9,16,2.9,16,5.6,1
2012/5/11 0:21,3,16,3,16,8.3,15
2012/5/11 0:22,3,16,3,16,4.5,2
2012/5/11 0:23,3.1,16,3.2,16,10.2,2
2012/5/11 0:24,3.3,16,3.3,16,6.7,16
2012/5/11 0:25,3.7,16,3.7,16,8.3,16
2012/5/11 0:26,4,16,4,16,7.7,16
2012/5/11 0:27,4.1,16,4.2,16,9.1,2
2012/5/11 0:28,4.3,16,4.4,16,9.3,16
2012/5/11 0:29,4.1,16,4.3,16,4.4,1
2012/5/11 0:30,4,16,4.1,16,5.6,1
2012/5/11 0:31,4.1,16,4.1,16,9.9,16
2012/5/11 0:32,4.7,16,4.7,16,12.1,16
2012/5/11 0:33,4.7,16,4.7,16,8.4,16
2012/5/11 0:34,4.8,16,4.8,16,10.1,16
2012/5/11 0:35,4.7,16,4.8,16,7.6,16
2012/5/11 0:36,4.7,16,4.7,16,10,16
2012/5/11 0:37,4.9,16,4.9,16,11.6,16
2012/5/11 0:38,5.7,16,5.7,16,17.5,15
2012/5/11 0:39,6.3,16,6.3,16,17.9,16
2012/5/11 0:40,6.7,16,6.7,16,10.3,13
2012/5/11 0:41,7.1,16,7.1,16,15,11
2012/5/11 0:42,6.5,15,7,16,10.2,9
2012/5/11 0:43,6.2,15,6.5,16,5.8,15
2012/5/11 0:44,6,15,6.2,16,6,16
2012/5/11 0:45,5.9,15,6.1,16,6.5,16
2012/5/11 0:46,5.8,15,5.9,16,10.6,1
2012/5/11 0:47,5.6,15,5.8,16,8.4,1
2012/5/11 0:48,4.5,15,5.5,16,4.7,16
2012/5/11 0:49,4.1,15,4.4,16,7,15
2012/5/11 0:50,3.6,16,4,16,6.8,3
2012/5/11 0:51,3,16,3.6,16,6.5,1
2012/5/11 0:52,3.3,16,3.3,15,10.7,1
2012/5/11 0:53,3.4,16,3.5,15,6.4,16
2012/5/11 0:54,3.4,16,3.5,15,7.2,12
2012/5/11 0:55,3.3,16,3.4,15,4.8,14
2012/5/11 0:56,3.4,16,3.4,15,10.2,16
2012/5/11 0:57,3.4,16,3.4,15,9.2,16
2012/5/11 0:58,3.3,16,3.3,15,4.3,2
2012/5/11 0:59,3.4,16,3.4,15,7.6,14
2012/5/11 1:00,3.5,15,3.6,16,6.1,16
2012/5/11 1:01,3.7,15,3.7,15,12.3,14
2012/5/11 1:02,4.1,15,4.1,15,13.6,15
2012/5/11 1:03,4,15,4.1,15,7.2,15
2012/5/11 1:04,3.9,16,4,15,4.5,1
2012/5/11 1:05,4.2,16,4.2,16,10.6,16
2012/5/11 1:06,4.3,16,4.4,16,11.6,16
2012/5/11 1:07,4.6,16,4.6,16,9.7,15
2012/5/11 1:08,5,16,5,16,8.5,15
2012/5/11 1:09,5.2,16,5.2,16,10.6,15
2012/5/11 1:10,5.3,16,5.4,16,10.9,16
2012/5/11 1:11,5.1,16,5.3,16,7.5,2
2012/5/11 1:12,4.7,16,5.1,16,7.8,16
2012/5/11 1:13,4.8,16,4.8,16,6.8,13
2012/5/11 1:14,5.1,16,5.1,16,12.5,16
2012/5/11 1:15,5.3,16,5.3,16,11,16
2012/5/11 1:16,5.4,16,5.4,16,12.7,15
2012/5/11 1:17,5.6,16,5.6,15,14.3,16
2012/5/11 1:18,5.7,16,5.7,16,9.7,15
2012/5/11 1:19,5.5,16,5.7,16,10.7,14
2012/5/11 1:20,5.6,16,5.6,16,10.1,16
2012/5/11 1:21,5.7,16,5.7,16,9.1,16
2012/5/11 1:22,6,16,6,16,9.7,14
2012/5/11 1:23,6.2,16,6.2,16,14.4,15
2012/5/11 1:24,6.2,16,6.3,16,10.8,14
2012/5/11 1:25,6.1,15,6.2,16,7.7,15
2012/5/11 1:26,6,15,6.1,16,14.7,16
2012/5/11 1:27,5.8,15,6,16,13.4,15
2012/5/11 1:28,5.9,15,5.9,16,15,15
2012/5/11 1:29,5.7,15,5.9,16,8.9,16
2012/5/11 1:30,5.5,15,5.7,16,10,16
2012/5/11 1:31,5.5,15,5.6,16,8.9,15
2012/5/11 1:32,5.8,15,5.8,16,13.8,15
2012/5/11 1:33,5.9,15,6,16,13.6,16
2012/5/11 1:34,5.9,15,5.9,16,9.9,11
2012/5/11 1:35,6.1,15,6.1,15,11.8,15
2012/5/11 1:36,6.4,15,6.6,15,17.8,14
2012/5/11 1:37,6.6,15,6.6,15,15.1,14
2012/5/11 1:38,6.5,15,6.8,15,13.9,14
2012/5/11 1:39,7,15,7,15,13,16
2012/5/11 1:40,7.1,15,7.2,15,10.1,15
2012/5/11 1:41,7.3,15,7.3,15,9.5,14
2012/5/11 1:42,7,15,7.3,15,9.4,15
2012/5/11 1:43,6.7,15,7,15,8.5,16
2012/5/11 1:44,6.6,15,6.7,15,9,16
2012/5/11 1:45,6.6,15,6.6,15,14.7,16
2012/5/11 1:46,6.4,15,6.7,15,11.7,16
2012/5/11 1:47,5.9,15,6.3,15,12.4,14
2012/5/11 1:48,6,15,6,15,12.4,15
2012/5/11 1:49,6,15,6,15,14.3,15
2012/5/11 1:50,6.2,15,6.2,15,11.1,15
2012/5/11 1:51,6.1,15,6.1,15,15.3,15
2012/5/11 1:52,6.3,16,6.3,15,17,16
2012/5/11 1:53,6.1,16,6.2,15,6,15
2012/5/11 1:54,6,16,6.1,15,7,16
2012/5/11 1:55,6,16,6.1,15,12.4,16
2012/5/11 1:56,5.7,16,6,15,7.2,14
2012/5/11 1:57,5.6,16,5.7,15,8.4,16
2012/5/11 1:58,5.5,16,5.6,15,11.5,14
2012/5/11 1:59,5.2,16,5.5,15,7,16
2012/5/11 2:00,4.8,16,5.2,15,6.5,15
2012/5/11 2:01,4.4,16,4.8,15,4.8,16
2012/5/11 2:02,4.5,16,4.5,16,10.6,16
2012/5/11 2:03,4.9,15,4.9,16,9.7,15
2012/5/11 2:04,5,15,5,16,9,16
2012/5/11 2:05,4.9,15,5.1,16,10.3,14
2012/5/11 2:06,5.3,15,5.3,16,13.3,15
2012/5/11 2:07,5.6,15,5.6,16,14.1,16
2012/5/11 2:08,5.8,15,5.8,15,9.7,15
2012/5/11 2:09,6.3,15,6.3,15,17.4,15
2012/5/11 2:10,6.8,15,6.8,15,17.7,15
2012/5/11 2:11,6.7,15,6.8,15,3.7,16
2012/5/11 2:12,6.4,15,6.7,15,7.6,16
2012/5/11 2:13,5.9,15,6.4,15,4.1,16
2012/5/11 2:14,5.8,15,5.9,15,7.2,16
2012/5/11 2:15,5.5,15,5.7,15,9.1,13
2012/5/11 2:16,5.3,15,5.6,15,8.6,13
2012/5/11 2:17,5,15,5.2,15,8.5,14
2012/5/11 2:18,4.9,15,5,15,10.3,16
2012/5/11 2:19,4.7,15,5,15,10.6,15
2012/5/11 2:20,4.2,15,4.6,15,6.1,16
2012/5/11 2:21,4.6,15,4.6,15,8.9,15
2012/5/11 2:22,4.7,15,4.7,15,10.5,15
2012/5/11 2:23,5.1,15,5.1,15,9.8,14
2012/5/11 2:24,5.1,15,5.2,15,8.4,16
2012/5/11 2:25,5.3,15,5.3,15,8.3,16
2012/5/11 2:26,5.3,15,5.3,15,8.2,15
2012/5/11 2:27,5.5,16,5.5,16,11.7,15
2012/5/11 2:28,5.2,15,5.4,16,7.5,15
2012/5/11 2:29,5,16,5.2,16,9.1,1
2012/5/11 2:30,5.4,15,5.4,16,10,16
2012/5/11 2:31,5.3,15,5.4,16,9.3,15
2012/5/11 2:32,5.2,15,5.3,16,7.9,14
2012/5/11 2:33,5,15,5.2,16,7.2,15
2012/5/11 2:34,5.3,15,5.3,16,10,1
2012/5/11 2:35,5.1,15,5.2,16,5.1,14
2012/5/11 2:36,5.3,15,5.3,16,10.7,15
2012/5/11 2:37,5,15,5.2,16,8.6,15
2012/5/11 2:38,5,15,5.1,15,8.2,16
2012/5/11 2:39,4.9,15,5.1,15,6.4,15
2012/5/11 2:40,4.7,15,4.9,15,6.4,16
2012/5/11 2:41,4.8,15,4.8,15,10.7,16
2012/5/11 2:42,5,15,5,15,14.4,15
2012/5/11 2:43,5.2,15,5.3,15,11.1,15
2012/5/11 2:44,4.9,15,5.2,15,7.1,15
2012/5/11 2:45,5,15,5,15,8.2,16
2012/5/11 2:46,4.8,15,5,15,8.9,15
2012/5/11 2:47,4.8,15,4.8,15,8.1,14
2012/5/11 2:48,4.7,15,4.8,15,4.7,14
2012/5/11 2:49,4.5,15,4.7,15,5.4,2
2012/5/11 2:50,4.6,15,4.6,15,8.4,15
2012/5/11 2:51,4.3,15,4.6,15,5,15
2012/5/11 2:52,3.7,15,4.2,15,3.6,15
2012/5/11 2:53,3.3,15,3.7,15,9.5,16
2012/5/11 2:54,3.5,15,3.5,15,6.9,1
2012/5/11 2:55,3.6,15,3.6,15,8.2,16
2012/5/11 2:56,3.6,15,3.6,15,9.7,16
2012/5/11 2:57,3.8,15,3.8,15,9.8,15
2012/5/11 2:58,4.2,15,4.2,15,13.1,14
2012/5/11 2:59,4.5,15,4.5,15,8.1,1
2012/5/11 3:00,4.5,15,4.5,15,9.2,15
2012/5/11 3:01,4.6,15,4.6,15,8.3,15
2012/5/11 3:02,5.1,16,5.1,16,9.4,15
2012/5/11 3:03,5.3,15,5.3,15,8.9,16
2012/5/11 3:04,5.4,15,5.4,15,10.9,16
2012/5/11 3:05,5.8,16,5.8,16,11.9,16
2012/5/11 3:06,5.9,16,6,16,9.2,1
2012/5/11 3:07,5.7,16,5.9,16,8.7,16
2012/5/11 3:08,5.4,16,5.8,16,8.2,1
2012/5/11 3:09,5.5,16,5.5,16,11.8,16
2012/5/11 3:10,5.7,16,5.7,16,9.4,16
2012/5/11 3:11,5.9,16,5.9,16,9.9,16
2012/5/11 3:12,6,16,6,16,15.3,16
2012/5/11 3:13,6.2,16,6.2,16,12.6,16
2012/5/11 3:14,6.1,16,6.2,16,6.9,15
2012/5/11 3:15,6,16,6,16,10.9,15
2012/5/11 3:16,6.1,16,6.1,16,10.3,16
2012/5/11 3:17,6.2,16,6.2,16,10.7,14
2012/5/11 3:18,6.6,16,6.6,16,11.6,15
2012/5/11 3:19,6.5,16,6.7,16,9.7,15
2012/5/11 3:20,6.7,16,6.7,16,11.9,15
2012/5/11 3:21,6.9,16,6.9,16,14.1,16
2012/5/11 3:22,6.7,16,7,16,11.5,16
2012/5/11 3:23,6.5,15,6.7,16,8.7,15
2012/5/11 3:24,6.4,15,6.5,16,7.2,16
2012/5/11 3:25,6.5,15,6.5,16,13.1,15
2012/5/11 3:26,6.3,15,6.4,16,9,16
2012/5/11 3:27,6.5,15,6.5,16,10.7,15
2012/5/11 3:28,6.5,15,6.5,16,12.6,15
2012/5/11 3:29,6.3,15,6.5,16,10.5,16
2012/5/11 3:30,5.8,15,6.2,16,8.3,16
2012/5/11 3:31,5.4,15,5.8,16,10,16
2012/5/11 3:32,5.4,15,5.4,16,8.7,15
2012/5/11 3:33,5.7,15,5.7,15,13.9,15
2012/5/11 3:34,5.9,15,5.9,15,10,1
2012/5/11 3:35,5.8,15,6,15,8.5,15
2012/5/11 3:36,5.7,15,5.8,15,7.8,13
2012/5/11 3:37,5.5,15,5.6,15,10.5,15
2012/5/11 3:38,5.3,15,5.6,15,9.5,15
2012/5/11 3:39,5.2,15,5.2,15,7.2,16
2012/5/11 3:40,5.1,15,5.2,15,4.2,14
2012/5/11 3:41,5.2,15,5.2,15,9.5,15
2012/5/11 3:42,5,15,5.2,15,7.5,16
2012/5/11 3:43,4.8,15,5,15,10.8,16
2012/5/11 3:44,4.6,15,4.8,15,7.5,15
2012/5/11 3:45,4.5,15,4.6,15,8.3,14
2012/5/11 3:46,4.4,15,4.4,15,6.1,13
2012/5/11 3:47,4,15,4.4,15,5.2,13
2012/5/11 3:48,3.6,15,3.9,15,1.8,1
2012/5/11 3:49,3.5,15,3.6,15,3.6,13
2012/5/11 3:50,3.5,15,3.5,15,3.7,13
2012/5/11 3:51,3.3,15,3.5,15,7.6,16
2012/5/11 3:52,3.2,15,3.3,15,4.3,16
2012/5/11 3:53,2.7,15,3.2,15,1.3,13
2012/5/11 3:54,2.4,15,2.7,15,2.6,16
2012/5/11 3:55,2.1,15,2.4,15,1.8,13
2012/5/11 3:56,2.2,15,2.2,15,10,16
2012/5/11 3:57,2.5,15,2.5,15,10.8,16
2012/5/11 3:58,2.9,15,2.9,15,8.4,15
2012/5/11 3:59,3.2,16,3.2,15,7.4,16
2012/5/11 4:00,3.6,16,3.6,16,11.9,16
2012/5/11 4:01,3.7,16,3.7,16,9.8,15
2012/5/11 4:02,4.1,16,4.1,16,11,15
2012/5/11 4:03,4.3,16,4.3,16,7.1,16
2012/5/11 4:04,4.6,16,4.6,16,6.3,15
2012/5/11 4:05,4.9,16,4.9,16,8.2,1
2012/5/11 4:06,5.2,16,5.2,16,10.3,15
2012/5/11 4:07,5.2,16,5.3,16,10.7,16
2012/5/11 4:08,5.3,16,5.3,16,9.9,16
2012/5/11 4:09,5.4,16,5.5,16,10,15
2012/5/11 4:10,5.1,16,5.4,16,6.9,16
2012/5/11 4:11,4.9,16,5.1,16,6,16
2012/5/11 4:12,4.7,16,4.9,16,5.6,15
2012/5/11 4:13,4.9,16,4.9,16,11.9,16
2012/5/11 4:14,5.2,16,5.2,16,11.7,16
2012/5/11 4:15,5.4,16,5.4,16,9.7,16
2012/5/11 4:16,5.2,16,5.4,16,8.2,1
2012/5/11 4:17,5.1,16,5.2,16,8.5,1
2012/5/11 4:18,5,16,5,16,8.6,2
2012/5/11 4:19,4.7,16,5,16,6,16
2012/5/11 4:20,4.7,16,4.8,16,5.4,1
2012/5/11 4:21,4.6,16,4.6,16,6.2,15
2012/5/11 4:22,4.7,16,4.8,16,8.4,16
2012/5/11 4:23,4.5,16,4.8,16,6.2,1
2012/5/11 4:24,4,16,4.4,16,4.2,15
2012/5/11 4:25,3.7,16,4,16,5.8,16
2012/5/11 4:26,3.6,16,3.7,16,7.6,15
2012/5/11 4:27,3.8,16,3.8,16,12.2,14
2012/5/11 4:28,3.7,16,3.9,16,10.6,16
2012/5/11 4:29,4,16,4,16,10,15
2012/5/11 4:30,4.4,16,4.4,16,11.7,16
2012/5/11 4:31,4.8,16,4.8,16,10.7,15
2012/5/11 4:32,4.9,16,4.9,16,9.2,15
2012/5/11 4:33,5.2,16,5.2,16,9.1,15
2012/5/11 4:34,5.6,16,5.6,16,10,16
2012/5/11 4:35,5.9,16,5.9,16,13,16
2012/5/11 4:36,6.1,16,6.1,16,12.7,15
2012/5/11 4:37,6.1,16,6.3,16,9.2,15
2012/5/11 4:38,6.4,15,6.4,15,12.7,13
2012/5/11 4:39,6.6,15,6.6,15,13.1,15
2012/5/11 4:40,6.7,15,6.7,15,13.1,15
2012/5/11 4:41,6.7,15,6.8,15,13.2,16
2012/5/11 4:42,7.2,15,7.2,15,17.5,15
2012/5/11 4:43,7.4,15,7.5,15,14.5,16
2012/5/11 4:44,7.5,15,7.5,15,10.5,15
2012/5/11 4:45,7.6,15,7.7,15,13.3,16
2012/5/11 4:46,7.6,15,7.7,15,12.2,14
2012/5/11 4:47,7.4,15,7.6,15,7.4,16
2012/5/11 4:48,7.3,16,7.4,15,10.6,15
2012/5/11 4:49,7.1,16,7.3,15,9.7,16
2012/5/11 4:50,6.8,16,7.1,15,8.4,16
2012/5/11 4:51,6.6,16,6.8,15,9.5,16
2012/5/11 4:52,6.1,16,6.6,15,11.6,15
2012/5/11 4:53,5.9,16,6.2,15,11.6,16
2012/5/11 4:54,5.9,16,5.9,15,8.7,16
2012/5/11 4:55,5.4,16,5.8,15,6.5,15
2012/5/11 4:56,5,16,5.4,15,3.6,3
2012/5/11 4:57,4.8,16,4.9,15,3.7,15
2012/5/11 4:58,4.5,16,4.8,16,5.4,15
2012/5/11 4:59,4.2,16,4.5,16,4.4,15
2012/5/11 5:00,4.2,16,4.2,16,10.7,15
2012/5/11 5:01,4.4,16,4.4,16,10.3,15
2012/5/11 5:02,4.3,16,4.4,16,8.9,16
2012/5/11 5:03,4.5,16,4.5,16,13,14
2012/5/11 5:04,4.5,16,4.6,16,9.1,1
2012/5/11 5:05,4.8,16,4.8,16,11.3,15
2012/5/11 5:06,5.2,16,5.2,16,9.8,15
2012/5/11 5:07,5.6,16,5.6,16,9.5,16
2012/5/11 5:08,5.8,16,5.8,16,8.2,16
2012/5/11 5:09,6.1,16,6.1,16,9.1,16
2012/5/11 5:10,6.3,16,6.3,16,13.2,15
2012/5/11 5:11,6.3,16,6.3,16,11.6,15
2012/5/11 5:12,6.6,16,6.6,16,11.3,16
2012/5/11 5:13,6.4,16,6.6,16,13.5,1
2012/5/11 5:14,6.3,16,6.4,16,9.7,15
2012/5/11 5:15,6.4,16,6.4,16,10.1,16
2012/5/11 5:16,6.3,16,6.4,16,10.5,16
2012/5/11 5:17,6.3,16,6.3,16,9,16
2012/5/11 5:18,6.2,16,6.3,16,9.2,16
2012/5/11 5:19,6.5,16,6.5,16,10.2,16
2012/5/11 5:20,6.2,16,6.4,16,7.7,15
2012/5/11 5:21,6.1,16,6.1,16,11.7,15
2012/5/11 5:22,6.2,16,6.3,16,13.2,16
2012/5/11 5:23,6.3,16,6.3,16,11.3,15
2012/5/11 5:24,6.4,16,6.4,16,9.2,16
2012/5/11 5:25,6.2,16,6.4,16,8.4,16
2012/5/11 5:26,6.2,16,6.4,16,8.5,15
2012/5/11 5:27,6,16,6.2,16,5.7,16
2012/5/11 5:28,5.9,16,6,16,7.5,16
2012/5/11 5:29,5.7,16,5.8,16,11,15
2012/5/11 5:30,5.7,16,5.8,16,9.1,15
2012/5/11 5:31,5.4,16,5.7,16,7.5,15
2012/5/11 5:32,5.1,16,5.4,16,7.1,14
2012/5/11 5:33,5,16,5.1,16,10.1,16
2012/5/11 5:34,4.7,16,4.9,16,8.1,16
2012/5/11 5:35,4.9,16,4.9,16,11.3,16
2012/5/11 5:36,4.9,16,4.9,16,9.9,16
2012/5/11 5:37,5.2,16,5.2,16,9,15
2012/5/11 5:38,5.4,15,5.4,16,11.3,15
2012/5/11 5:39,5.3,15,5.6,16,9.2,16
2012/5/11 5:40,5.3,16,5.4,16,9.4,16
2012/5/11 5:41,5.3,16,5.3,15,6.5,15
2012/5/11 5:42,5.4,16,5.4,15,9.9,1
2012/5/11 5:43,5.5,16,5.5,15,12.8,15
2012/5/11 5:44,5.6,16,5.6,15,11.6,16
2012/5/11 5:45,5.4,16,5.6,15,12.1,15
2012/5/11 5:46,5.7,16,5.7,16,13.1,16
2012/5/11 5:47,6,16,6,16,14.7,15
2012/5/11 5:48,6,16,6.1,16,13.2,14
2012/5/11 5:49,6.1,16,6.1,16,10.1,15
2012/5/11 5:50,6.4,16,6.4,16,12.5,16
2012/5/11 5:51,6.9,16,6.9,16,12.6,16
2012/5/11 5:52,6.9,16,7,16,8.6,15
2012/5/11 5:53,6.8,16,6.8,16,9,16
2012/5/11 5:54,6.8,15,6.8,16,11.1,16
2012/5/11 5:55,6.8,15,6.8,16,10.6,16
2012/5/11 5:56,6.5,15,6.9,16,9,15
2012/5/11 5:57,6.4,15,6.6,16,12.8,15
2012/5/11 5:58,6.5,15,6.5,16,10.7,15
2012/5/11 5:59,6.6,15,6.6,16,9.2,15
2012/5/11 6:00,6.5,15,6.6,16,10.3,16
2012/5/11 6:01,6.3,15,6.5,16,9.8,16
2012/5/11 6:02,6.3,15,6.3,15,9.8,14
2012/5/11 6:03,6.2,15,6.3,15,9,16
2012/5/11 6:04,6.1,15,6.1,15,9.1,15
2012/5/11 6:05,6.1,15,6.1,15,9.5,16
2012/5/11 6:06,6.1,15,6.1,15,10.6,15
2012/5/11 6:07,6,15,6.1,15,9,16
2012/5/11 6:08,6.1,15,6.1,15,13.4,16
2012/5/11 6:09,6.1,15,6.2,15,12.8,14
2012/5/11 6:10,6,15,6.1,15,10.1,15
2012/5/11 6:11,5.9,15,6,15,8.3,15
2012/5/11 6:12,5.7,15,5.8,15,8.2,16
2012/5/11 6:13,5.5,15,5.7,15,6.8,15
2012/5/11 6:14,5.4,15,5.6,15,5.1,13
2012/5/11 6:15,5,15,5.3,15,4.4,15
2012/5/11 6:16,4.9,15,5.1,15,10,16
2012/5/11 6:17,4.9,15,4.9,15,10.3,16
2012/5/11 6:18,4.8,15,4.9,15,12.5,14
2012/5/11 6:19,4.8,15,4.8,15,10.9,16
2012/5/11 6:20,4.9,15,4.9,15,13.3,15
2012/5/11 6:21,4.9,15,5,15,6,15
2012/5/11 6:22,4.9,15,4.9,15,6.3,15
2012/5/11 6:23,5.2,15,5.2,15,10.7,16
2012/5/11 6:24,5.7,15,5.7,15,11.6,15
2012/5/11 6:25,5.9,15,5.9,16,7.2,15
2012/5/11 6:26,5.9,16,5.9,16,7.8,15
2012/5/11 6:27,5.8,16,5.9,16,7.6,16
2012/5/11 6:28,5.4,16,5.8,16,7.1,15
2012/5/11 6:29,5.3,15,5.4,16,8.5,15
2012/5/11 6:30,5.1,15,5.3,16,9.1,16
2012/5/11 6:31,5.3,15,5.3,16,9.9,15
2012/5/11 6:32,5.5,15,5.5,16,9.1,16
2012/5/11 6:33,5.4,15,5.5,16,7.9,15
2012/5/11 6:34,5.2,15,5.5,16,8.1,16
2012/5/11 6:35,5.2,15,5.2,16,12.8,16
2012/5/11 6:36,5.2,15,5.3,16,8.9,14
2012/5/11 6:37,5.4,15,5.4,16,12.5,15
2012/5/11 6:38,5.7,15,5.8,15,10.8,16
2012/5/11 6:39,5.6,15,5.7,15,6.8,14
2012/5/11 6:40,5.3,15,5.6,15,5.6,16
2012/5/11 6:41,5.1,16,5.3,15,6.9,15
2012/5/11 6:42,4.8,16,5.1,15,4.7,15
2012/5/11 6:43,4.5,16,4.8,15,4.4,16
2012/5/11 6:44,4.1,16,4.4,15,3.9,14
2012/5/11 6:45,3.8,15,4.1,15,3.3,14
2012/5/11 6:46,3.5,15,3.8,15,3.2,13
2012/5/11 6:47,3.1,15,3.5,15,6.2,16
2012/5/11 6:48,2.8,15,3.1,15,5.7,13
2012/5/11 6:49,2.8,15,2.8,15,5.4,15
2012/5/11 6:50,2.7,14,2.8,15,3.9,15
2012/5/11 6:51,2.4,14,2.7,16,3,15
2012/5/11 6:52,2.4,14,2.4,16,3.6,14
2012/5/11 6:53,2.1,14,2.3,16,2.9,1
2012/5/11 6:54,2.1,14,2.1,16,2.7,12
2012/5/11 6:55,2.2,14,2.2,15,4.7,12
2012/5/11 6:56,2.2,14,2.2,15,2.4,11
2012/5/11 6:57,2.2,14,2.2,15,5.4,5
2012/5/11 6:58,2.2,14,2.3,15,5.2,15
2012/5/11 6:59,2.2,15,2.2,15,5.5,16
2012/5/11 7:00,2.4,15,2.4,14,6.3,16
2012/5/11 7:01,2.9,15,2.9,15,9.9,15
2012/5/11 7:02,3.2,15,3.2,15,10.7,14
2012/5/11 7:03,3.6,15,3.6,15,6.9,16
2012/5/11 7:04,4.1,15,4.1,15,9.2,15
2012/5/11 7:05,4.3,15,4.3,15,9.3,16
2012/5/11 7:06,4.6,15,4.6,15,7.4,15
2012/5/11 7:07,4.8,15,4.8,15,9.8,15
2012/5/11 7:08,4.9,15,4.9,15,9.2,16
2012/5/11 7:09,5,15,5,15,6.8,16
2012/5/11 7:10,4.9,15,5,15,6.7,13
2012/5/11 7:11,4.6,15,4.9,15,6.3,13
2012/5/11 7:12,4.5,15,4.7,15,10.2,16
2012/5/11 7:13,4.4,15,4.5,15,7.5,16
2012/5/11 7:14,4.4,15,4.4,15,9.1,15
2012/5/11 7:15,4.4,15,4.4,15,9,14
2012/5/11 7:16,4.5,15,4.5,15,11.5,15
2012/5/11 7:17,4.5,15,4.5,15,8.5,16
2012/5/11 7:18,4.5,15,4.5,15,8.1,16
2012/5/11 7:19,4.4,15,4.5,15,6.2,1
2012/5/11 7:20,4.8,15,4.8,15,12.2,14
2012/5/11 7:21,5,15,5,15,10.5,15
2012/5/11 7:22,5.2,15,5.2,15,8.6,1
2012/5/11 7:23,5.3,16,5.3,15,9.3,15
2012/5/11 7:24,5.4,16,5.4,16,8.4,16
2012/5/11 7:25,5.3,16,5.4,16,9.8,15
2012/5/11 7:26,5,16,5.2,16,5,16
2012/5/11 7:27,5.1,16,5.1,16,9.7,16
2012/5/11 7:28,5,16,5.1,16,8.5,16
2012/5/11 7:29,5.3,16,5.3,16,10.1,16
2012/5/11 7:30,4.8,16,5.3,16,5.7,16
2012/5/11 7:31,4.8,16,4.8,16,9.1,15
2012/5/11 7:32,4.8,16,4.8,16,9.9,15
2012/5/11 7:33,4.6,16,4.7,16,7.7,15
2012/5/11 7:34,4.6,16,4.6,16,9.8,15
2012/5/11 7:35,4.9,16,4.9,16,11.4,16
2012/5/11 7:36,5,16,5,16,8.2,15
2012/5/11 7:37,5,16,5.1,16,9.2,16
2012/5/11 7:38,5.3,16,5.3,16,11,15
2012/5/11 7:39,5.4,16,5.5,16,11.4,16
2012/5/11 7:40,5.8,16,5.8,16,8.9,16
2012/5/11 7:41,5.8,16,5.8,16,7.1,16
2012/5/11 7:42,5.7,16,5.7,16,9.3,14
2012/5/11 7:43,5.7,16,5.7,16,7.1,14
2012/5/11 7:44,5.7,16,5.7,16,9.5,15
2012/5/11 7:45,5.4,16,5.6,16,8.2,16
2012/5/11 7:46,5.5,16,5.6,16,10,15
2012/5/11 7:47,5.7,16,5.8,16,13.5,15
2012/5/11 7:48,5.5,16,5.7,16,10,16
2012/5/11 7:49,5.3,16,5.5,16,6.8,14
2012/5/11 7:50,5,16,5.2,16,6.4,16
2012/5/11 7:51,5.4,16,5.4,16,12.2,16
2012/5/11 7:52,5.6,16,5.6,16,11.1,16
2012/5/11 7:53,5.7,16,5.7,16,8.9,16
2012/5/11 7:54,5.6,16,5.8,16,8.3,16
2012/5/11 7:55,5.7,16,5.7,16,9.3,16
2012/5/11 7:56,5.5,16,5.7,16,8.3,16
2012/5/11 7:57,5,16,5.4,16,8.1,15
2012/5/11 7:58,4.9,16,5,16,9,1
2012/5/11 7:59,4.9,16,4.9,16,6.3,16
2012/5/11 8:00,5.2,16,5.2,16,13.1,15
2012/5/11 8:01,4.7,16,5.2,16,4.8,16
2012/5/11 8:02,4.4,16,4.7,16,6.9,15
2012/5/11 8:03,4.4,16,4.4,16,9,16
2012/5/11 8:04,4.5,16,4.5,16,12.5,16
2012/5/11 8:05,4.6,16,4.6,16,10.6,16
2012/5/11 8:06,4.6,16,4.6,16,6.1,1
2012/5/11 8:07,4.6,16,4.7,16,5.7,15
2012/5/11 8:08,4.5,16,4.5,16,7.7,15
2012/5/11 8:09,4.6,16,4.6,16,9.2,15
2012/5/11 8:10,4.3,16,4.5,16,9.2,15
2012/5/11 8:11,4.4,16,4.4,16,7.9,15
2012/5/11 8:12,4.5,16,4.5,16,6.4,15
2012/5/11 8:13,4.5,16,4.5,16,6.2,16
2012/5/11 8:14,4.4,16,4.6,16,10.3,16
2012/5/11 8:15,4.4,16,4.4,16,9.3,15
2012/5/11 8:16,4.6,16,4.6,16,11.7,16
2012/5/11 8:17,4.8,16,4.8,16,7.5,2
2012/5/11 8:18,4.7,16,4.8,16,6.3,16
2012/5/11 8:19,4.7,16,4.8,16,7,1
2012/5/11 8:20,4.4,16,4.6,16,4.4,12
2012/5/11 8:21,4.2,16,4.4,16,6,1
2012/5/11 8:22,4.1,16,4.2,16,5.4,15
2012/5/11 8:23,4.1,16,4.1,16,8.9,1
2012/5/11 8:24,4,16,4.2,16,6.7,1
2012/5/11 8:25,3.9,16,4,16,8.3,16
2012/5/11 8:26,3.7,16,3.8,16,7.5,16
2012/5/11 8:27,3.9,16,4,16,9.4,16
2012/5/11 8:28,4,16,4,16,7,16
2012/5/11 8:29,4.2,15,4.2,16,10.7,16
2012/5/11 8:30,4.6,15,4.6,16,10.5,15
2012/5/11 8:31,4.6,15,4.7,15,6.4,15
2012/5/11 8:32,4.8,16,4.8,15,6.8,16
2012/5/11 8:33,4.7,16,4.8,15,6.5,1
2012/5/11 8:34,4.6,16,4.7,15,6.2,16
2012/5/11 8:35,4.4,16,4.6,15,6.1,15
2012/5/11 8:36,4.5,16,4.5,15,9.7,16
2012/5/11 8:37,4.4,16,4.6,15,9.7,15
2012/5/11 8:38,4.3,16,4.4,15,7,16
2012/5/11 8:39,4.1,16,4.3,15,5.8,16
2012/5/11 8:40,3.9,16,4.1,15,4.9,16
2012/5/11 8:41,4,16,4,15,6.1,15
2012/5/11 8:42,3.8,16,4,16,6.7,16
2012/5/11 8:43,3.7,15,3.8,16,5.5,16
2012/5/11 8:44,3.7,15,3.7,16,6.5,16
2012/5/11 8:45,3.9,16,3.9,16,7.8,16
2012/5/11 8:46,3.7,16,3.8,16,5.2,2
2012/5/11 8:47,3.4,16,3.6,16,5.1,1
2012/5/11 8:48,3.4,16,3.5,16,6.4,16
2012/5/11 8:49,3.3,16,3.5,16,5.4,16
2012/5/11 8:50,3.3,16,3.3,16,4.3,15
2012/5/11 8:51,3.1,16,3.3,16,4.9,15
2012/5/11 8:52,3.1,16,3.1,16,4.4,2
2012/5/11 8:53,2.9,16,3.1,16,3.1,5
2012/5/11 8:54,3.1,16,3.1,16,7.5,15
2012/5/11 8:55,3.1,16,3.1,16,9.1,15
2012/5/11 8:56,3.4,16,3.4,16,9.1,16
2012/5/11 8:57,3.5,16,3.5,16,8.4,16
2012/5/11 8:58,3.5,16,3.6,16,5.8,1
2012/5/11 8:59,3.5,16,3.5,16,5.1,16
2012/5/11 9:00,3.6,16,3.6,16,9,16
2012/5/11 9:01,4,16,4,16,9.9,15
2012/5/11 9:02,4.3,16,4.3,16,8.4,16
2012/5/11 9:03,4.5,16,4.5,16,7.6,15
2012/5/11 9:04,4.4,16,4.5,16,5.8,1
2012/5/11 9:05,4.5,16,4.5,16,9.7,1
2012/5/11 9:06,4.3,16,4.5,16,6.3,16
2012/5/11 9:07,4.3,16,4.3,16,9.3,16
2012/5/11 9:08,4.7,16,4.7,16,10.2,16
2012/5/11 9:09,4.8,16,4.8,16,8.1,16
2012/5/11 9:10,4.9,16,4.9,16,9.5,1
2012/5/11 9:11,4.5,16,4.9,16,6.5,16
2012/5/11 9:12,4.5,16,4.5,16,9.1,2
2012/5/11 9:13,4.4,16,4.5,16,7.2,16
2012/5/11 9:14,4.4,16,4.4,16,8.4,1
2012/5/11 9:15,4.2,16,4.4,16,6,16
2012/5/11 9:16,4.2,16,4.2,16,6,16
2012/5/11 9:17,4.2,16,4.2,16,9.8,1
2012/5/11 9:18,4,16,4.2,16,10.1,1
2012/5/11 9:19,4.2,16,4.2,16,9.3,16
2012/5/11 9:20,4.2,16,4.2,16,8.6,16
2012/5/11 9:21,4.3,16,4.3,16,7.5,16
2012/5/11 9:22,4.2,16,4.4,16,6.1,2
2012/5/11 9:23,4.2,16,4.2,16,7,16
2012/5/11 9:24,4.4,16,4.4,16,10.7,15
2012/5/11 9:25,4.6,16,4.7,16,10.3,1
2012/5/11 9:26,4.7,16,4.7,16,7.7,16
2012/5/11 9:27,4.7,16,4.8,16,7.9,16
2012/5/11 9:28,4.5,16,4.6,16,6.1,1
2012/5/11 9:29,4.2,1,4.5,16,4.5,1
2012/5/11 9:30,3.8,16,4.1,16,3.3,15
2012/5/11 9:31,3.8,16,3.8,16,6.7,15
2012/5/11 9:32,4,16,4,16,13.4,16
2012/5/11 9:33,4.1,16,4.1,16,7.4,15
2012/5/11 9:34,4.1,16,4.1,16,9.2,15
2012/5/11 9:35,4.1,16,4.2,16,8.9,15
2012/5/11 9:36,4.2,16,4.3,16,7.9,15
2012/5/11 9:37,4.1,16,4.2,16,6,15
2012/5/11 9:38,4.3,16,4.3,16,7.9,14
2012/5/11 9:39,4.7,16,4.7,16,10.5,15
2012/5/11 9:40,5,16,5,16,7.4,16
2012/5/11 9:41,4.8,16,5,16,3.9,16
2012/5/11 9:42,4.4,16,4.7,16,2.2,16
2012/5/11 9:43,4.1,16,4.3,16,4.4,16
2012/5/11 9:44,3.8,16,4.1,16,4.8,16
2012/5/11 9:45,3.7,15,3.7,16,6.8,16
2012/5/11 9:46,3.5,15,3.7,16,6.7,15
2012/5/11 9:47,3.4,16,3.5,16,5.7,1
2012/5/11 9:48,3.1,16,3.4,16,5.1,16
2012/5/11 9:49,2.7,16,3.1,16,4.4,1
2012/5/11 9:50,2.5,16,2.7,16,5.8,16
2012/5/11 9:51,2.7,16,2.7,16,7.4,1
2012/5/11 9:52,2.8,16,2.8,16,3.7,16
2012/5/11 9:53,2.9,16,3,16,5.1,16
2012/5/11 9:54,3,16,3,16,5.7,15
2012/5/11 9:55,3,16,3.1,15,9.2,15
2012/5/11 9:56,3.4,16,3.4,15,9.7,16
2012/5/11 9:57,3.5,16,3.5,16,7.6,16
2012/5/11 9:58,3.6,16,3.6,16,6.4,1
2012/5/11 9:59,3.6,16,3.6,16,4.4,16
2012/5/11 10:00,3.5,16,3.6,16,3.9,14
2012/5/11 10:01,3.4,16,3.5,16,4.3,15
2012/5/11 10:02,3.5,16,3.5,16,6.3,16
2012/5/11 10:03,3.7,16,3.7,16,10,15
2012/5/11 10:04,3.8,16,3.8,16,6.8,16
2012/5/11 10:05,4,16,4,16,8.9,15
2012/5/11 10:06,3.9,15,3.9,16,10.2,15
2012/5/11 10:07,4,16,4,16,7.5,16
2012/5/11 10:08,4,15,4,16,6,15
2012/5/11 10:09,4.2,15,4.2,15,6.9,15
2012/5/11 10:10,4.4,16,4.4,15,7.8,16
2012/5/11 10:11,4.6,16,4.6,16,6.8,15
2012/5/11 10:12,4.7,15,4.7,16,8.3,15
2012/5/11 10:13,4.7,15,4.8,15,6.2,15
2012/5/11 10:14,4.8,15,4.8,15,9.2,16
2012/5/11 10:15,4.8,15,5,15,9.5,15
2012/5/11 10:16,4.7,15,4.8,15,7.9,1
2012/5/11 10:17,4.6,15,4.7,15,6.2,16
2012/5/11 10:18,4.8,16,4.8,15,8.2,16
2012/5/11 10:19,4.9,15,4.9,15,10.6,15
2012/5/11 10:20,4.9,15,5,15,11,15
2012/5/11 10:21,4.9,15,4.9,15,7.6,2
2012/5/11 10:22,5,15,5.1,15,10.3,16
2012/5/11 10:23,5,16,5,15,7.5,16
2012/5/11 10:24,4.7,16,5,15,7.1,16
2012/5/11 10:25,4.6,16,4.7,15,7.9,16
2012/5/11 10:26,4.3,16,4.6,15,5,16
2012/5/11 10:27,4.5,16,4.5,15,9.4,1
2012/5/11 10:28,4.6,16,4.6,15,11.1,16
2012/5/11 10:29,4.5,16,4.6,15,7.9,15
2012/5/11 10:30,4.6,16,4.6,15,10.6,16
2012/5/11 10:31,4.6,16,4.7,15,9.3,16
2012/5/11 10:32,4.6,16,4.6,15,9,16
2012/5/11 10:33,4.6,16,4.7,16,7.2,16
2012/5/11 10:34,4.7,16,4.7,16,7.8,15
2012/5/11 10:35,4.9,15,4.9,16,8.7,14
2012/5/11 10:36,5,15,5,15,7.7,16
2012/5/11 10:37,4.7,15,5,15,4.7,16
2012/5/11 10:38,4.5,16,4.7,15,5.5,15
2012/5/11 10:39,4.5,16,4.6,15,6.7,16
2012/5/11 10:40,4.4,16,4.5,15,7.4,15
2012/5/11 10:41,4.5,16,4.5,15,8.9,16
2012/5/11 10:42,4.3,16,4.5,15,6.7,1
2012/5/11 10:43,4.3,16,4.3,15,6.8,15
2012/5/11 10:44,4.4,16,4.4,15,9.3,15
2012/5/11 10:45,4.2,16,4.4,15,10.3,15
2012/5/11 10:46,4.3,16,4.3,16,6,14
2012/5/11 10:47,4.2,16,4.3,15,4.8,1
2012/5/11 10:48,4,16,4.2,16,2.5,2
2012/5/11 10:49,3.8,16,4,16,4.8,1